Weather Roundup
Issued by NWS

Home | Current Version | Previous Version | Text Only | Print | Product List | Glossary On
Versions: 1 2 3 4 5 6 7 8 9 10 11 12 13 14 15 16 17 18 19 20 21 22 23 24 25 26 27 28 29 30 31 32 33 34 35 36 37 38 39 40 41 42 43 44 45 46 47 48 49 50
000
NZUS93 KARX 232159
HRRWXR

CURRENT HOURLY OBSERVATIONS ACROSS
MUCH OF THE UPPER MISSISSIPPI VALLEY
NATIONAL WEATHER SERVICE LA CROSSE WI
500 PM CDT MON APR 23 2018


...SOUTHEAST MINNESOTA...


CITY           SKY/WX    TMP DP  RH WIND       PRES   REMARKS
ROCHESTER      FAIR      67  37  33 VRB5      30.14F
ROCHESTER/MAYO FAIR      68  33  27 N3        30.14F
WINONA         FAIR      70  28  21 CALM      30.11F
AUSTIN         FAIR      66  39  37 N6        30.14S
ALBERT LEA     FAIR      64  34  32 NE6       30.14F
DODGE CENTER   FAIR      64  36  34 NW3       30.14F
PRESTON        FAIR      66  31  27 NE5       30.14F
OWATONNA       FAIR      66  37  34 NW3       30.14F
FARIBAULT      NOT AVBL
$$

...ELSEWHERE IN MINNESOTA...


CITY           SKY/WX    TMP DP  RH WIND       PRES   REMARKS
MINNEAPOLIS    FAIR      70  35  27 N3        30.13F
INTNL FALLS    FAIR      62  31  31 W15       30.11F
DULUTH         FAIR      67  37  33 VRB5      30.10F
RED WING       FAIR      70  21  16 S8        30.12F
REDWOOD FALLS  SUNNY     66  38  35 S6        30.14F
MANKATO        FAIR      66  39  37 NE3       30.15F
WORTHINGTON    SUNNY     64  39  39 NE7       30.15F
FAIRMONT       SUNNY     62  40  44 CALM      30.16F
$$

...SOUTHWEST WISCONSIN...


CITY           SKY/WX    TMP DP  RH WIND       PRES   REMARKS
LA CROSSE      FAIR      71  26  18 W7        30.12F
PRAIRIE DU CHI FAIR      69  19  15 E5        30.11F
BOSCOBEL       FAIR      69  27  20 E9        30.12F
LONE ROCK      NOT AVBL
PLATTEVILLE    FAIR      66  27  22 NE10      30.12S
FORT MC COY    FAIR      68  24  19 SE5       30.14F
MAUSTON-NEW LI FAIR     N/A N/A N/A CALM      30.14S
VIROQUA        FAIR      66  33  28 N8        30.13F
WIS DELLS      FAIR      66  25  21 E7        30.14S
$$

...ELSEWHERE IN WISCONSIN...


CITY           SKY/WX    TMP DP  RH WIND       PRES   REMARKS
MILWAUKEE      PTSUNNY   57  24  28 N14G23    30.14F
MADISON        PTSUNNY   65  25  22 E12       30.12F
GREEN BAY      FAIR      62  32  32 NE7       30.17F
EAU CLAIRE     FAIR      69  29  22 CALM      30.13F
BLACK RVR FLS  FAIR      71  16  12 CALM      30.13F
MEDFORD        FAIR      60  32  34 S5        30.16F
WAUSAU         FAIR      64  24  21 CALM      30.13F
WIS RAPIDS     FAIR      65  25  22 E8        30.16F
MARSHFIELD     FAIR      62  27  26 SE6       30.14F
RICE LAKE      FAIR      64  32  30 CALM      30.17F
$$

...NORTHEAST IOWA...


CITY           SKY/WX    TMP DP  RH WIND       PRES   REMARKS
WATERLOO       FAIR      71  31  22 NE13      30.09F
DUBUQUE        FAIR      67  25  20 E14       30.10S
DECORAH        FAIR      66  27  22 VRB8      30.11F
MASON CITY     SUNNY     66  41  40 NE8       30.14F
CHARLES CITY   FAIR      68  34  28 N9        30.12F
OELWEIN        FAIR      70  28  21 NE10      30.11F
$$

...ELSEWHERE IN IOWA...


CITY           SKY/WX    TMP DP  RH WIND       PRES   REMARKS
DES MOINES     MOSUNNY   73  27  18 E9        30.07F
IOWA CITY      FAIR      69  25  19 NE10      30.08F
FORT DODGE     SUNNY     68  37  32 E10       30.12F
MARSHALLTOWN   SUNNY     71  29  21 NE13G22   30.08F
CEDAR RAPIDS   FAIR      72  27  18 NE14      30.07F
$$

...NORTHERN ILLINOIS...


CITY           SKY/WX    TMP DP  RH WIND       PRES   REMARKS
CHICAGO-OHARE  CLOUDY    62  27  26 NE16      30.09F
CHICAGO-MIDWAY CLOUDY    60  30  32 N16       30.10S
MOLINE         FAIR      72  32  23 NE12      30.03F
ROCKFORD       PTSUNNY   69  29  22 E13       30.10S
PEORIA         PTSUNNY   67  36  31 NE13G22   30.02F
$$

NOTE: "FAIR" INDICATES FEW OR NO CLOUDS BELOW 12,000 FEET WITH NO
SIGNIFICANT WEATHER AND/OR OBSTRUCTIONS TO VISIBILITY. WIND
SPEEDS ARE IN MILES-PER-HOUR.




USA.gov is the U.S. government's official web portal to all federal, state and local government web resources and services.